Location: Mannheim
(49.4880°N, 8.4650°E)
Time: 04:48:45
(UTC+02:00)

ISS - Pass Details

Date: 24 May 2022
Orbit: 414 x 420 km, 51.6° (Epoch: 03 July)

Event Time Altitude Azimuth Distance (km) Brightness Sun altitude
Rises 00:46:39 0° 287° (WNW) 2,366 0.4 -19.3°
Reaches altitude 10° 00:48:59 10° 274° (W) 1,497 -0.8 -19.4°
Enters shadow 00:50:13 18° 257° (WSW) 1,115 -1.7 -19.4°
